This is the latest recevied weather packets stored in our database for station/object IU3NMQ-10. If no packets are shown the sender has not sent any weather packets the latest 10 day(s).
| Time | Temp. | Humidity | Pressure | Rain* | Wind** | Luminosity | Snow |
|---|---|---|---|---|---|---|---|
| 1788117492 | 27.78° C | 61% | 1010.3 hPa | - | - | - | - |
| 1788116591 | 28.33° C | 60% | 1010.2 hPa | - | - | - | - |
| 1788115691 | 28.89° C | 59% | 1010.2 hPa | - | - | - | - |
| 1788114791 | 28.89° C | 57% | 1010 hPa | - | - | - | - |
| 1788113891 | 29.44° C | 57% | 1009.7 hPa | - | - | - | - |
| 1788112991 | 30° C | 57% | 1009.6 hPa | - | - | - | - |
| 1788112091 | 30° C | 55% | 1009.5 hPa | - | - | - | - |
| 1788111191 | 30.56° C | 52% | 1009.4 hPa | - | - | - | - |
| 1788110291 | 31.11° C | 50% | 1009.3 hPa | - | - | - | - |
| 1788109393 | 31.67° C | 48% | 1009.5 hPa | - | - | - | - |
| 1788108490 | 32.22° C | 47% | 1009.5 hPa | - | - | - | - |
| 1788107590 | 32.22° C | 47% | 1009.6 hPa | - | - | - | - |
| 1788106690 | 32.78° C | 45% | 1009.6 hPa | - | - | - | - |
| 1788105800 | 32.78° C | 45% | 1009.7 hPa | - | - | - | - |
| 1788104890 | 33.33° C | 44% | 1009.7 hPa | - | - | - | - |
| 1788103990 | 33.89° C | 42% | 1009.7 hPa | - | - | - | - |
| 1788103090 | 34.44° C | 44% | 1009.7 hPa | - | - | - | - |
| 1788102224 | 34.44° C | 42% | 1009.9 hPa | - | - | - | - |
| 1788102195 | 34.44° C | 42% | 1009.9 hPa | - | - | - | - |
| 1788102189 | 34.44° C | 42% | 1009.9 hPa | - | - | - | - |
| 1788101324 | 35° C | 42% | 1009.8 hPa | - | - | - | - |
| 1788101289 | 35° C | 42% | 1009.8 hPa | - | - | - | - |
| 1788100389 | 34.44° C | 41% | 1010 hPa | - | - | - | - |
| 1788099489 | 35° C | 42% | 1010 hPa | - | - | - | - |
| 1788098589 | 34.44° C | 42% | 1010.1 hPa | - | - | - | - |
* Rain since midnight (hover to see other rain measurements)
** Current wind speed in m/s (hover to see current wind gust speed)